This is the latest recevied weather packets stored in our database for station/object KD4EG. If no packets are shown the sender has not sent any weather packets the latest 10 day(s).
| Time | Temp. | Humidity | Pressure | Rain* | Wind** | Luminosity | Snow |
|---|---|---|---|---|---|---|---|
| 1778099423 | 23.33° C | 70% | 1012.1 hPa | 0 mm | - | 237 W/m² | - |
| 1778099120 | 23.33° C | 71% | 1012 hPa | 0 mm | - | 327 W/m² | - |
| 1778098816 | 23.33° C | 71% | 1012.1 hPa | 0 mm | - | 317 W/m² | - |
| 1778098515 | 23.33° C | 71% | 1012.1 hPa | 0 mm | - | 297 W/m² | - |
| 1778098211 | 22.78° C | 72% | 1011.8 hPa | 0 mm | - | 309 W/m² | - |
| 1778097906 | 22.78° C | 72% | 1012 hPa | 0 mm | - | 430 W/m² | - |
| 1778097597 | 22.78° C | 72% | 1012.1 hPa | 0 mm | - | 378 W/m² | - |
| 1778097295 | 22.78° C | 73% | 1012.1 hPa | 0 mm | - | 357 W/m² | - |
| 1778096990 | 22.78° C | 74% | 1012 hPa | 0 mm | - | 326 W/m² | - |
| 1778096689 | 22.22° C | 75% | 1012.3 hPa | 0 mm | - | 409 W/m² | - |
| 1778096385 | 22.22° C | 76% | 1012.3 hPa | 0 mm | - | 325 W/m² | - |
| 1778096082 | 21.67° C | 77% | 1012.5 hPa | 0 mm | - | 292 W/m² | - |
| 1778095779 | 21.67° C | 77% | 1012.4 hPa | 0 mm | - | 306 W/m² | - |
| 1778095476 | 22.22° C | 77% | 1012.6 hPa | 0 mm | - | 288 W/m² | - |
| 1778095172 | 21.67° C | 76% | 1012.5 hPa | 0 mm | - | 260 W/m² | - |
| 1778094869 | 21.67° C | 77% | 1012.5 hPa | 0 mm | - | 357 W/m² | - |
| 1778094566 | 21.67° C | 77% | 1012.5 hPa | 0 mm | - | 372 W/m² | - |
| 1778094262 | 21.67° C | 78% | 1012.5 hPa | 0 mm | - | 509 W/m² | - |
| 1778093959 | 20.56° C | 79% | 1012.7 hPa | 0 mm | - | 460 W/m² | - |
| 1778093657 | 20.56° C | 80% | 1012.9 hPa | 0 mm | - | 239 W/m² | - |
| 1778093354 | 20.56° C | 79% | 1012.9 hPa | 0 mm | - | 233 W/m² | - |
| 1778093051 | 20.56° C | 80% | 1012.8 hPa | 0 mm | - | 269 W/m² | - |
| 1778092748 | 20.56° C | 80% | 1012.6 hPa | 0 mm | - | 251 W/m² | - |
| 1778092443 | 20.56° C | 81% | 1012.7 hPa | 0 mm | - | 232 W/m² | - |
| 1778092140 | 20.56° C | 80% | 1012.9 hPa | 0 mm | - | 214 W/m² | - |
* Rain latest hour (hover to see other rain measurements)
** Current wind speed in m/s (hover to see current wind gust speed)